Prescott, AZ

7:42 AM MST on December 11, 2019 (GMT -0700)
Love

Weather History for KPRC - October, 2019

Change the Weather History Date:

Sunday, October 20, 2019

  Actual Average Record
Temperature  
Mean Temperature 54 °F 55 °F  
Max Temperature 69 °F 70 °F 87 °F (2003)
Min Temperature 40 °F 40 °F 21 °F (1949)
Degree Days  
Heating Degree Days 10    
Month to date heating degree days 131  
Since 1 July heating degree days 158  
Cooling Degree Days 0    
Month to date cooling degree days 0  
Year to date cooling degree days 1130  
Growing Degree Days 4 (Base 50)    
Moisture  
Dew Point 8 °F    
Average Humidity 19    
Maximum Humidity 40    
Minimum Humidity 4    
Precipitation  
Precipitation 0.00 in 0.02 in 0.62 in (1969)
Month to date precipitation 0.00 0.62  
Year to date precipitation 10.29 11.79  
Sea Level Pressure  
Sea Level Pressure 29.89 in    
Wind  
Wind Speed 6 mph ()    
Max Wind Speed 20 mph    
Max Gust Speed 25 mph    
Visibility 10.0 miles    
Events      
T = Trace of Precipitation, MM = Missing Value Source: Averaged Metar Reports

Daily Weather History Graph

Daily Weather History Graph

Search for Another Location

Airport or City:

Astronomy

Oct. 20, 2019 Rise Set
Actual Time 6:39 AM MST 5:49 PM MST
Civil Twilight 6:13 AM MST 6:14 PM MST
Nautical Twilight 5:44 AM MST 6:43 PM MST
Astronomical Twilight 5:15 AM MST 7:13 PM MST
Moon 11:11 PM MST (10/20) 1:00 PM MST (10/20)
Length of Visible Light 12h 00m
Length of Day
11h 09m
Waning Gibbous, 58% of the Moon is Illuminated
Oct 20
Waning Gibbous
Oct 21
Last Quarter
Oct 27
New
Nov 4
First Quarter
Nov 12
Full

Hourly Weather History & Observations

Time (MST) Temp. Windchill Dew Point Humidity Pressure Visibility Wind Dir Wind Speed Gust Speed Precip Events Conditions
12:53 AM 53.1 °F - 19.0 °F 26% 29.76 in 9.0 mi SSW 8.1 mph - N/A   Clear
1:53 AM 51.1 °F - 15.1 °F 24% 29.77 in 10.0 mi Calm Calm - N/A   Clear
2:53 AM 46.0 °F - 16.0 °F 30% 29.79 in 10.0 mi Calm Calm - N/A   Clear
3:53 AM 44.1 °F 42.5 °F 19.9 °F 38% 29.79 in 10.0 mi SW 3.5 mph - N/A   Clear
4:53 AM 46.0 °F - 17.1 °F 31% 29.80 in 10.0 mi Calm Calm - N/A   Clear
5:53 AM 45.0 °F 43.5 °F 19.0 °F 36% 29.83 in 10.0 mi WSW 3.5 mph - N/A   Clear
6:53 AM 41.0 °F 37.1 °F 18.0 °F 40% 29.87 in 10.0 mi WSW 5.8 mph - N/A   Clear
7:53 AM 48.9 °F - 18.0 °F 29% 29.88 in 10.0 mi Calm Calm - N/A   Clear
8:53 AM 54.0 °F - 16.0 °F 22% 29.92 in 10.0 mi North 8.1 mph - N/A   Clear
9:53 AM 59.0 °F - 17.1 °F 20% 29.91 in 10.0 mi North 11.5 mph - N/A   Clear
10:53 AM 62.1 °F - 19.0 °F 19% 29.89 in 10.0 mi North 11.5 mph 17.3 mph N/A   Clear
11:53 AM 64.0 °F - 17.1 °F 16% 29.88 in 10.0 mi West 8.1 mph - N/A   Clear
12:53 PM 66.0 °F - 15.1 °F 14% 29.88 in 10.0 mi North 10.4 mph - N/A   Clear
1:50 PM 68.0 °F - 1.4 °F 7% 30.04 in 10.0 mi NW 18.4 mph 23.0 mph N/A   Clear
1:53 PM 68.0 °F - -0.0 °F 7% 29.86 in 10.0 mi NW 10.4 mph 23.0 mph N/A   Clear
2:53 PM 69.1 °F - -9.9 °F 4% 29.85 in 10.0 mi WNW 13.8 mph 21.9 mph N/A   Clear
3:53 PM 69.1 °F - -8.0 °F 4% 29.87 in 10.0 mi NW 17.3 mph 24.2 mph N/A   Clear
4:53 PM 66.0 °F - -6.0 °F 5% 29.88 in 10.0 mi NNW 12.7 mph - N/A   Clear
5:53 PM 57.9 °F - -2.9 °F 8% 29.91 in 10.0 mi NW 6.9 mph - N/A   Clear
6:53 PM 55.0 °F - -4.0 °F 9% 29.95 in 10.0 mi WNW 8.1 mph - N/A   Clear
7:53 PM 52.0 °F - -2.9 °F 10% 29.96 in 10.0 mi NNW 9.2 mph - N/A   Clear
8:53 PM 48.0 °F - -0.0 °F 14% 29.97 in 10.0 mi NNW 6.9 mph - N/A   Clear
9:53 PM 46.0 °F 43.9 °F 1.0 °F 16% 29.99 in 10.0 mi WSW 4.6 mph - N/A   Clear
10:53 PM 45.0 °F 40.1 °F 3.9 °F 18% 29.99 in 10.0 mi NW 9.2 mph - N/A   Clear
11:53 PM 44.1 °F 40.1 °F 6.1 °F 21% 29.99 in 10.0 mi NW 6.9 mph - N/A   Clear